[[{"header":{"parameterUnit":"m.s-1","parameterCategory":1,"la1":30.2991,"la2":30.254,"lo1":-89.0895,"lo2":-89.0444,"dy":0.0017,"dx":0.0017,"nx":28,"ny":28,"refTime":"2024-03-29T09:00:00:Z","depth":0,"parameterNumber":2,"parameterNumberName":"U-component_of_WINDS"},"data":[0,0,0,0,0,0,0,0,0,0,0,0,0,0,0,0,0,0,0,0,0,0,0,0,0,0,0,0,0,0,0,0,0,0,0,0,0,0,0,0,0,0,0,0,0,0,0,0,0,0,0,0,0,0,0,0,0,0,-2.0532,-2.0532,0,-2.0544,-2.0544,-2.0544,-2.0539,-2.0539,-2.0539,-2.0538,-2.0549,-2.055,-2.055,0,0,0,0,0,0,0,0,0,0,0,0,0,-2.0504,-2.0505,-2.0532,-2.0532,-2.0532,-2.0544,-2.0544,-2.0544,-2.0539,-2.0539,-2.0539,-2.0538,-2.0549,-2.055,-2.055,0,0,0,0,0,0,0,0,0,0,0,0,0,-2.0516,-2.0505,-2.0532,-2.0531,-2.0531,-2.0544,-2.0544,-2.0544,-2.0539,-2.0539,-2.0538,-2.0538,-2.0549,-2.055,-2.055,-2.0564,0,0,-2.0553,-2.0553,0,0,0,0,0,0,0,0,-2.0516,-2.0517,-2.0531,-2.0531,-2.0531,-2.054,-2.0538,-2.0551,-2.0539,-2.0536,-2.0538,-2.0538,-2.0546,-2.0547,-2.055,-2.0565,-2.0565,-2.0553,-2.0554,-2.0554,-2.0554,0,0,0,0,0,0,0,-2.0515,-2.0517,-2.0536,-2.0531,-2.0531,-2.053,-2.0531,-2.0541,-2.0543,-2.0536,-2.0536,-2.0538,-2.0546,-2.055,-2.0551,-2.0565,-2.0553,-2.0554,-2.0554,-2.0555,-2.0593,-2.0593,0,0,0,0,0,0,-2.0514,-2.0516,-2.0536,-2.0537,-2.0522,-2.0531,-2.0532,-2.0537,-2.0543,-2.0544,-2.0538,-2.0537,-2.0548,-2.055,-2.0551,-2.0568,-2.0554,-2.0555,-2.0555,-2.0592,-2.0593,-2.0593,0,0,0,0,0,0,-2.0513,-2.0516,-2.0535,-2.0526,-2.0529,-2.0532,-2.0537,-2.0538,-2.0541,-2.0545,-2.0545,-2.0541,-2.0548,-2.055,-2.0561,-2.0568,-2.0555,-2.0556,-2.0592,-2.0592,-2.0593,-2.0601,0,0,0,0,0,0,-2.0513,-2.0516,-2.052,-2.0527,-2.0529,-2.0545,-2.0538,-2.0538,-2.0543,-2.0542,-2.0547,-2.0548,-2.0548,-2.056,-2.0562,-2.0569,-2.0556,-2.0591,-2.0592,-2.0593,-2.06,-2.0602,-2.0604,0,0,0,0,0,-2.0512,-2.0522,-2.0521,-2.0523,-2.0536,-2.0546,-2.0547,-2.0548,-2.0543,-2.0548,-2.0551,-2.0548,-2.0568,-2.0561,-2.0564,-2.0571,-2.0591,-2.0592,-2.0593,-2.06,-2.0602,-2.0604,0,0,0,0,0,0,-2.0515,-2.0522,-2.0521,-2.0534,-2.0539,-2.0545,-2.0551,-2.055,-2.0556,-2.0555,-2.0555,-2.0557,-2.0569,-2.0571,-2.0564,-2.0585,-2.0578,-2.058,-2.0583,-2.0585,-2.0587,-2.0585,-2.0557,0,0,0,0,0,-2.0518,-2.0526,-2.0531,-2.0542,-2.0545,-2.0548,-2.0552,-2.0552,-2.0558,-2.056,-2.0563,-2.0569,-2.0576,-2.0581,-2.0588,-2.0602,-2.0603,-2.0608,-2.061,-2.0611,-2.0612,-2.062,-2.0623,-2.0597,-2.0597,-2.0597,0,0,-2.0522,-2.0527,-2.0532,-2.0543,-2.0547,-2.0555,-2.055,-2.0558,-2.0565,-2.0561,-2.0572,-2.0575,-2.0581,-2.0594,-2.06,-2.0597,-2.062,-2.0613,-2.0614,-2.0614,-2.0622,-2.0624,-2.0626,-2.0598,-2.0598,-2.0598,0,0,-2.0535,-2.054,-2.0549,-2.0554,-2.0561,-2.0564,-2.0566,-2.0573,-2.0575,-2.0586,-2.0584,-2.0592,-2.0605,-2.061,-2.0614,-2.0631,-2.0628,-2.0633,-2.0642,-2.065,-2.0652,-2.0654,-2.066,-2.0662,-2.0635,-2.0635,-2.0635,0,-2.054,-2.0552,-2.0554,-2.0564,-2.0569,-2.0568,-2.0577,-2.0582,-2.0591,-2.0595,-2.0591,-2.0608,-2.0612,-2.0627,-2.0631,-2.0635,-2.0638,-2.0632,-2.0652,-2.0653,-2.0655,-2.0661,-2.0663,-2.0635,-2.0635,-2.0635,-2.0635,0,-2.0558,-2.0567,-2.0574,-2.0583,-2.0589,-2.0599,-2.0603,-2.0609,-2.0609,-2.0612,-2.0624,-2.063,-2.0638,-2.0642,-2.0642,-2.0657,-2.0655,-2.0652,-2.0644,-2.0658,-2.0663,-2.0666,-2.0636,-2.0636,-2.0636,-2.0636,0,0,-2.0571,-2.0583,-2.0586,-2.0591,-2.06,-2.0607,-2.0617,-2.0626,-2.0632,-2.0639,-2.0647,-2.0659,-2.0657,-2.0662,-2.0663,-2.067,-2.0684,-2.0666,-2.0666,-2.0669,-2.0701,-2.0703,-2.0705,-2.0683,-2.0683,-2.0684,-2.07,0,-2.0584,-2.0602,-2.0605,-2.0621,-2.0629,-2.063,-2.0639,-2.0646,-2.0649,-2.0657,-2.0661,-2.067,-2.0666,-2.0669,-2.0677,-2.068,-2.069,-2.0679,-2.069,-2.0691,-2.0688,-2.0708,-2.0709,-2.0725,-2.0702,-2.0703,-2.0703,0,-2.0601,-2.061,-2.0626,-2.0636,-2.064,-2.0647,-2.0657,-2.0665,-2.0673,-2.0675,-2.0682,-2.0682,-2.0694,-2.0687,-2.0703,-2.0696,-2.0701,-2.0704,-2.0704,-2.0704,-2.0697,-2.0708,-2.073,-2.0732,-2.0707,-2.0706,-2.0706,0,-2.0609,-2.0625,-2.0637,-2.0641,-2.0652,-2.0658,-2.0663,-2.0671,-2.0677,-2.0686,-2.069,-2.0699,-2.0704,-2.0712,-2.0715,-2.0711,-2.0731,-2.0725,-2.0733,-2.0732,-2.0735,-2.0735,-2.0757,-2.074,-2.074,-2.074,-2.074,0,-2.0623,-2.0633,-2.0641,-2.0648,-2.066,-2.0664,-2.0676,-2.0681,-2.0688,-2.0697,-2.0698,-2.0706,-2.0711,-2.072,-2.0722,-2.0735,-2.0737,-2.0739,-2.074,-2.0739,-2.0738,-2.0741,-2.074,-2.0741,-2.0741,-2.0741,-2.074,0,-2.0633,-2.0638,-2.0652,-2.0662,-2.0665,-2.0673,-2.0682,-2.069,-2.0694,-2.0705,-2.0708,-2.0715,-2.0726,-2.0731,-2.0743,-2.0746,-2.076,-2.076,-2.0757,-2.0757,-2.0764,-2.0763,-2.0788,-2.0792,-2.0773,-2.0774,-2.0774,0,-2.0641,-2.0649,-2.066,-2.0667,-2.0672,-2.0682,-2.0688,-2.0693,-2.07,-2.0711,-2.0717,-2.0729,-2.0737,-2.0755,-2.0761,-2.0771,-2.0771,-2.0779,-2.0772,-2.0771,-2.0771,-2.077,-2.0771,-2.078,-2.078,-2.078,-2.078,0,-2.0654,-2.0657,-2.0667,-2.0678,-2.0686,-2.0694,-2.0703,-2.0708,-2.0714,-2.0722,-2.0734,-2.0741,-2.0755,-2.0766,-2.0777,-2.0782,-2.0782,-2.0783,-2.0785,-2.0784,-2.0781,-2.0782,-2.076,-2.0782,-2.0782,-2.0782,-2.0781,-2.0781,-2.0663,-2.0671,-2.0681,-2.0691,-2.0699,-2.0707,-2.0715,-2.0721,-2.0731,-2.0743,-2.0746,-2.0758,-2.0768,-2.0783,-2.0789,-2.0798,-2.0796,-2.08,-2.08,-2.0801,-2.0801,-2.0781,-2.0801,-2.08,-2.08,-2.08,-2.08,0,-2.0677,-2.0684,-2.0694,-2.0706,-2.0715,-2.0716,-2.0726,-2.0733,-2.0744,-2.0753,-2.0762,-2.0776,-2.0787,-2.0795,-2.0807,-2.0813,-2.0814,-2.0816,-2.0815,-2.0816,-2.0802,-2.0799,-2.0815,-2.0815,-2.0815,-2.0815,-2.0815,-2.0815,-2.0685,-2.0698,-2.0702,-2.0719,-2.0726,-2.0738,-2.0744,-2.0752,-2.0759,-2.0775,-2.0784,-2.079,-2.0799,-2.0811,-2.0822,-2.0824,-2.0828,-2.083,-2.0832,-2.0819,-2.0817,-2.0815,-2.0812,-2.0831,-2.0831,-2.0845,-2.0845,-2.0845]},{"header":{"parameterUnit":"m.s-1","parameterCategory":1,"la1":30.2991,"la2":30.254,"lo1":-89.0895,"lo2":-89.0444,"dy":0.0017,"dx":0.0017,"nx":28,"ny":28,"refTime":"2024-03-29T09:00:00:Z","depth":0,"parameterNumber":3,"parameterNumberName":"V-component_of_WINDS"},"data":[0,0,0,0,0,0,0,0,0,0,0,0,0,0,0,0,0,0,0,0,0,0,0,0,0,0,0,0,0,0,0,0,0,0,0,0,0,0,0,0,0,0,0,0,0,0,0,0,0,0,0,0,0,0,0,0,0,0,4.1095,4.1095,0,4.1112,4.1112,4.1112,4.1166,4.1167,4.1168,4.1169,4.1184,4.1183,4.1183,0,0,0,0,0,0,0,0,0,0,0,0,0,4.1108,4.1108,4.1095,4.1095,4.1095,4.1112,4.1112,4.1112,4.1166,4.1167,4.1169,4.117,4.1184,4.1183,4.1182,0,0,0,0,0,0,0,0,0,0,0,0,0,4.1111,4.1107,4.1095,4.1124,4.1127,4.1112,4.1112,4.1112,4.1165,4.1167,4.1169,4.1171,4.1184,4.1183,4.1182,4.1139,0,0,4.1179,4.1178,0,0,0,0,0,0,0,0,4.1111,4.1111,4.112,4.1122,4.1125,4.1139,4.1122,4.1121,4.1165,4.1151,4.1169,4.1172,4.1167,4.1168,4.1167,4.114,4.1141,4.1179,4.1178,4.1178,4.1177,0,0,0,0,0,0,0,4.1111,4.111,4.1102,4.112,4.1123,4.1136,4.1139,4.1122,4.1149,4.1152,4.1156,4.1157,4.1169,4.1168,4.1168,4.1141,4.1179,4.1178,4.1177,4.1177,4.1083,4.1081,0,0,0,0,0,0,4.1107,4.111,4.1101,4.1102,4.1123,4.1134,4.1137,4.1132,4.1149,4.1153,4.1156,4.116,4.1169,4.1169,4.1168,4.1121,4.1178,4.1177,4.1176,4.1085,4.1083,4.1081,0,0,0,0,0,0,4.1107,4.1105,4.11,4.1107,4.1107,4.1132,4.1127,4.1132,4.1131,4.1152,4.1157,4.115,4.117,4.117,4.1147,4.1122,4.1176,4.1175,4.1087,4.1084,4.1082,4.1025,0,0,0,0,0,0,4.1107,4.1105,4.1089,4.1106,4.1107,4.1079,4.1125,4.1131,4.1129,4.1134,4.1147,4.1151,4.1172,4.1148,4.1146,4.1122,4.1174,4.1089,4.1086,4.1083,4.1029,4.1021,4.1013,0,0,0,0,0,4.1107,4.1071,4.1088,4.1086,4.1087,4.1077,4.1078,4.1102,4.1127,4.1111,4.1125,4.1151,4.1125,4.1146,4.1143,4.1118,4.1091,4.1087,4.1083,4.1033,4.1022,4.1014,0,0,0,0,0,0,4.1048,4.1074,4.1093,4.1061,4.1067,4.1086,4.1067,4.109,4.1088,4.1093,4.1124,4.1126,4.11,4.1107,4.1129,4.1079,4.1113,4.1108,4.1075,4.1066,4.1058,4.1057,4.1173,0,0,0,0,0,4.1032,4.1022,4.1045,4.1015,4.1017,4.1041,4.1038,4.1057,4.1064,4.1066,4.1078,4.1083,4.1077,4.1072,4.1067,4.1031,4.1035,4.1013,4.1005,4.0998,4.0994,4.0977,4.0968,4.1067,4.1067,4.1067,0,0,4.0997,4.101,4.1002,4.1003,4.101,4.0999,4.1043,4.1029,4.1021,4.1063,4.1044,4.1053,4.1061,4.1032,4.102,4.1037,4.0968,4.0993,4.0987,4.0987,4.0972,4.0963,4.0954,4.1064,4.1065,4.1065,0,0,4.0929,4.0938,4.0915,4.0921,4.0932,4.0949,4.0943,4.096,4.0968,4.0949,4.0981,4.0973,4.096,4.0965,4.0966,4.0903,4.0927,4.09,4.0859,4.0843,4.0835,4.0828,4.0807,4.0799,4.0896,4.0896,4.0896,0,4.0885,4.0871,4.09,4.0885,4.0885,4.0925,4.0902,4.0907,4.0914,4.0914,4.0933,4.0921,4.0928,4.0902,4.0887,4.0886,4.0882,4.0899,4.0834,4.0827,4.0821,4.0802,4.0793,4.0893,4.0893,4.0893,4.0894,0,4.0816,4.0806,4.0786,4.0795,4.0793,4.0774,4.08,4.0795,4.0815,4.083,4.0811,4.0822,4.0821,4.0817,4.0835,4.0794,4.0805,4.0828,4.0863,4.0808,4.079,4.0783,4.0888,4.0889,4.089,4.0891,0,0,4.071,4.0737,4.0729,4.0735,4.075,4.0743,4.0726,4.0727,4.0722,4.0727,4.0714,4.0704,4.0728,4.0729,4.0748,4.0734,4.0686,4.076,4.0761,4.0747,4.0643,4.0625,4.0616,4.0702,4.0701,4.07,4.0643,0,4.0647,4.0621,4.0648,4.0617,4.0608,4.0647,4.0633,4.0641,4.0655,4.065,4.0666,4.0659,4.0689,4.0691,4.0678,4.0694,4.0665,4.0698,4.0691,4.0691,4.0688,4.0606,4.0587,4.0532,4.0636,4.0635,4.0634,0,4.0569,4.0572,4.054,4.056,4.0558,4.0545,4.0549,4.0543,4.0554,4.0565,4.0568,4.0593,4.0579,4.0613,4.0594,4.0616,4.0615,4.0623,4.0621,4.0622,4.0659,4.0605,4.0516,4.0508,4.0623,4.0623,4.0624,0,4.0496,4.0492,4.0473,4.0476,4.0499,4.0489,4.0498,4.051,4.051,4.0513,4.0514,4.0515,4.0515,4.0516,4.0541,4.0563,4.052,4.0555,4.053,4.0529,4.0519,4.0519,4.0428,4.0517,4.0517,4.0517,4.0517,0,4.0423,4.0402,4.0441,4.043,4.0408,4.044,4.0418,4.043,4.0442,4.0434,4.0467,4.0458,4.0492,4.0487,4.0506,4.0489,4.0489,4.0498,4.0504,4.0495,4.0494,4.0495,4.05,4.0515,4.0515,4.0516,4.0516,0,4.0337,4.0363,4.0345,4.0369,4.0375,4.0358,4.0378,4.0369,4.0386,4.0376,4.0375,4.0402,4.0398,4.0424,4.0424,4.0437,4.0411,4.0423,4.0408,4.0412,4.0385,4.0388,4.0292,4.0282,4.0376,4.0375,4.0374,0,4.0289,4.0275,4.0298,4.0295,4.0303,4.0298,4.0299,4.033,4.0329,4.0341,4.033,4.033,4.0331,4.0324,4.0344,4.0345,4.0358,4.0324,4.0358,4.0351,4.0358,4.0359,4.0359,4.0317,4.0316,4.0315,4.0314,0,4.0201,4.0215,4.0215,4.022,4.022,4.0224,4.0231,4.0227,4.0261,4.0258,4.0256,4.0257,4.026,4.0259,4.0265,4.0274,4.03,4.0303,4.0298,4.0289,4.0282,4.0287,4.0389,4.0305,4.0306,4.0307,4.0307,4.0308,4.0134,4.0124,4.0139,4.0138,4.0147,4.0153,4.0147,4.0164,4.0163,4.0168,4.0186,4.0181,4.0194,4.0205,4.0212,4.0209,4.0225,4.0216,4.0214,4.0212,4.0208,4.0282,4.021,4.021,4.021,4.0211,4.0211,0,4.0049,4.0062,4.006,4.007,4.007,4.0095,4.0105,4.0103,4.0098,4.0109,4.011,4.0109,4.0109,4.013,4.0133,4.0126,4.0139,4.0126,4.0127,4.0129,4.0192,4.0197,4.0117,4.0117,4.0117,4.0117,4.0117,4.0117,4.0005,3.999,4.0006,3.9996,4.0008,4.0004,4.0008,4.0014,4.0023,4.002,4.0021,4.0035,4.005,4.0055,4.0057,4.0063,4.0063,4.0047,4.0057,4.0116,4.0125,4.0133,4.0138,4.0047,4.0047,3.9995,3.9995,3.9994]}]]